Location: ?????
(44.4284°N, 135.2222°E)
Time: 10:15:51
(UTC+00:00)

Cosmos 2278 - Pass Details

Date: 19 May 2025
Orbit: 839 x 850 km, 71.1° (Epoch: 13 June)

Event Time Altitude Azimuth Distance (km) Brightness Sun altitude
Rises 14:38:46 0° 332° (NNW) 3,403 7.9 -25.5°
Reaches altitude 10° 14:41:14 10° 330° (NNW) 2,464 6.9 -25.6°
Maximum altitude 14:46:50 70° 249° (WSW) 892 3.6 -25.6°
Enters shadow 14:47:14 67° 219° (SW) 906 3.6 -25.6°
